Simultaneous Nadir Overpasses (SNOs) Predictions

Prediction of SNOs between LANDSAT-8 and TERRA Satellite Orbit:

Table of predicted SNOs for the next 14.0 days since TLE Epoch: 7/10/2023
Index Date (LANDSAT-8) Time (LANDSAT-8) Lat,Lon (LANDSAT-8) SZA (LANDSAT-8 ) Date (TERRA) Time (TERRA) Lat,Lon (TERRA) SZA (TERRA ) Distance(km) Time Diff (sec)
1 07/23/2023 08:00:11 81.25, 143.89 68.97 07/23/2023 08:01:20 81.25, 143.97 69.03 1.50 69
2 07/23/2023 08:49:37 -81.24, -48.26 110.99 07/23/2023 08:50:42 -81.23, -48.15 110.93 2.08 65
3 07/23/2023 09:39:03 81.23, 119.56 69.05 07/23/2023 09:40:03 81.22, 119.73 69.11 3.10 60
4 07/23/2023 10:28:28 -81.19, -72.22 110.87 07/23/2023 10:29:25 -81.20, -72.39 110.85 3.08 57
5 07/23/2023 11:17:54 81.18, 95.60 69.17 07/23/2023 11:18:46 81.19, 95.49 69.19 2.08 52
6 07/23/2023 12:07:20 -81.17, -96.55 110.79 07/23/2023 12:08:08 -81.17, -96.63 110.78 1.48 48
7 07/23/2023 12:56:47 81.18, 70.90 69.19 07/23/2023 12:57:30 81.18, 70.88 69.21 0.48 43
8 07/23/2023 13:46:13 -81.17,-121.25 110.78 07/23/2023 13:46:52 -81.17,-121.24 110.75 0.13 39
9 07/23/2023 14:35:39 81.16, 46.57 69.26 07/23/2023 14:36:13 81.15, 46.64 69.29 1.14 34
10 07/23/2023 15:25:05 -81.14,-145.59 110.71 07/23/2023 15:25:35 -81.14,-145.49 110.67 1.72 30
11 07/23/2023 16:14:31 81.13, 22.24 69.33 07/23/2023 16:14:56 81.12, 22.39 69.37 2.75 25
12 07/23/2023 17:03:58 -81.14,-170.29 110.69 07/23/2023 17:04:19 -81.13,-170.10 110.65 3.32 21
13 07/23/2023 17:53:22 81.08, -1.73 69.46 07/23/2023 17:53:39 81.09, -1.86 69.45 2.43 17
14 07/23/2023 18:42:48 -81.07, 166.10 110.51 07/23/2023 18:43:01 -81.08, 166.00 110.51 1.85 13
15 07/23/2023 19:32:15 81.08, -26.43 69.48 07/23/2023 19:32:23 81.09, -26.48 69.48 0.82 8
16 07/23/2023 20:21:41 -81.07, 141.40 110.49 07/23/2023 20:21:45 -81.07, 141.39 110.49 0.26 4
17 07/23/2023 21:11:07 81.06, -50.77 69.55 07/23/2023 21:11:06 81.05, -50.73 69.56 0.80 1
18 07/23/2023 22:00:33 -81.04, 117.06 110.42 07/23/2023 22:00:28 -81.04, 117.13 110.41 1.35 5
19 07/23/2023 22:49:59 81.03, -75.12 69.62 07/23/2023 22:49:49 81.02, -74.99 69.64 2.41 10
20 07/23/2023 23:39:25 -81.02, 92.71 110.35 07/23/2023 23:39:11 -81.01, 92.87 110.33 2.95 14
21 07/24/2023 00:28:50 80.98, -99.11 69.75 07/24/2023 00:28:32 80.99, -99.25 69.72 2.77 18
22 07/24/2023 01:18:16 -80.97, 68.72 110.22 07/24/2023 01:17:54 -80.97, 68.61 110.25 2.21 22
23 07/24/2023 02:07:42 80.95,-123.45 69.82 07/24/2023 02:07:15 80.96,-123.51 69.79 1.16 27
24 07/24/2023 02:57:08 -80.94, 44.37 110.15 07/24/2023 02:56:37 -80.94, 44.34 110.17 0.61 31



Historial Predications of SNOs between LANDSAT-8 and TERRA
